Sturgeon Bay, WI

11:15 AM CDT on October 14, 2019 (GMT -0500)
Door County Cherryland

Weather History for KSUE - August, 2019

Change the Weather History Date:

Friday, August 9, 2019

  Actual Average Record
Temperature  
Mean Temperature 68 °F -  
Max Temperature 75 °F 79 °F 93 °F (1949)
Min Temperature 61 °F 58 °F 42 °F (1964)
Cooling Degree Days 3    
Growing Degree Days 18 (Base 50)    
Moisture  
Dew Point 56 °F    
Average Humidity 68    
Maximum Humidity 84    
Minimum Humidity 44    
Precipitation  
Precipitation 0.00 in - - ()
Sea Level Pressure  
Sea Level Pressure 29.91 in    
Wind  
Wind Speed 7 mph (WNW)    
Max Wind Speed 13 mph    
Max Gust Speed -    
Visibility 10 miles    
Events      
Averages and records for this station are not official NWS values.
T = Trace of Precipitation, MM = Missing Value Source: NWS Daily Summary

Daily Weather History Graph

Daily Weather History Graph

Search for Another Location

Airport or City:

Astronomy

Aug. 09, 2019 Rise Set
Actual Time 5:44 AM CDT 8:05 PM CDT
Civil Twilight 5:11 AM CDT 8:37 PM CDT
Nautical Twilight 4:31 AM CDT 9:17 PM CDT
Astronomical Twilight 3:45 AM CDT 10:03 PM CDT
Moon 3:49 PM CDT (8/9) 12:40 AM CDT (8/9)
Length of Visible Light 15h 25m
Length of Day
14h 20m
Waxing Gibbous, 70% of the Moon is Illuminated
Aug 9
Waxing Gibbous
Aug 15
Full
Aug 23
Last Quarter
Aug 30
New
Sep 5
First Quarter

Hourly Weather History & Observations

Time (CDT) Temp. Dew Point Humidity Pressure Visibility Wind Dir Wind Speed Gust Speed Precip Events Conditions
12:56 AM 63.0 °F 55.9 °F 78% 29.86 in 10.0 mi West 4.6 mph - N/A   Clear
1:56 AM 61.0 °F 55.9 °F 83% 29.87 in 10.0 mi West 5.8 mph - N/A   Clear
2:56 AM 61.0 °F 55.9 °F 83% 29.86 in 10.0 mi West 6.9 mph - N/A   Clear
3:56 AM 63.0 °F 54.0 °F 72% 29.86 in 10.0 mi WNW 5.8 mph - N/A   Clear
4:56 AM 62.1 °F 54.0 °F 75% 29.87 in 10.0 mi West 5.8 mph - N/A   Clear
5:56 AM 61.0 °F 54.0 °F 78% 29.89 in 10.0 mi WNW 5.8 mph - N/A   Clear
6:56 AM 62.1 °F 55.0 °F 78% 29.90 in 10.0 mi WNW 5.8 mph - N/A   Clear
7:56 AM 64.0 °F 55.9 °F 75% 29.91 in 10.0 mi WNW 10.4 mph - N/A   Clear
8:56 AM 64.9 °F 57.0 °F 75% 29.93 in 10.0 mi WNW 8.1 mph - N/A   Clear
9:56 AM 66.9 °F 57.0 °F 70% 29.92 in 10.0 mi WNW 9.2 mph - N/A   Clear
10:56 AM 69.1 °F 57.0 °F 65% 29.93 in 10.0 mi WNW 11.5 mph - N/A   Clear
11:56 AM 71.1 °F 55.9 °F 59% 29.92 in 10.0 mi WNW 9.2 mph - N/A   Clear
12:56 PM 72.0 °F 54.0 °F 53% 29.92 in 10.0 mi NW 11.5 mph - N/A   Partly Cloudy
1:56 PM 73.0 °F 54.0 °F 51% 29.92 in 10.0 mi West 9.2 mph - N/A   Partly Cloudy
2:56 PM 75.0 °F 53.1 °F 46% 29.91 in 10.0 mi West 12.7 mph - N/A   Clear
3:56 PM 75.0 °F 53.1 °F 46% 29.91 in 10.0 mi West 10.4 mph - N/A   Partly Cloudy
4:56 PM 75.0 °F 52.0 °F 44% 29.91 in 10.0 mi WNW 10.4 mph - N/A   Clear
5:56 PM 75.0 °F 55.0 °F 50% 29.91 in 10.0 mi WNW 5.8 mph - N/A   Clear
6:56 PM 73.9 °F 57.0 °F 55% 29.92 in 10.0 mi WNW 3.5 mph - N/A   Clear
7:56 PM 70.0 °F 59.0 °F 68% 29.93 in 10.0 mi Calm Calm - N/A   Clear
8:56 PM 64.9 °F 57.9 °F 78% 29.94 in 10.0 mi Calm Calm - N/A   Clear
9:56 PM 63.0 °F 57.9 °F 84% 29.95 in 10.0 mi Calm Calm - N/A   Clear
10:56 PM 64.9 °F 59.0 °F 81% 29.96 in 10.0 mi ENE 6.9 mph - N/A   Clear
11:56 PM 64.0 °F 57.9 °F 80% 29.96 in 10.0 mi East 4.6 mph - N/A   Clear